�������l�o���
Date,Time,MP-1(��Sv/h),MP-2(��Sv/h),MP-3(��Sv/h),MP-4(��Sv/h),MP-5(��Sv/h),MP-6(��Sv/h),MP-7(��Sv/h),MP-8(��Sv/h),����,����(m/s),���J
2020/12/27,00:00,0.678,0.971,0.615,1.225,0.862,0.382,0.676,0.636,��,3.1,��
2020/12/27,00:10,0.681,0.971,0.614,1.224,0.858,0.381,0.678,0.636,��,2.5,��
2020/12/27,00:20,0.678,0.970,0.614,1.226,0.860,0.381,0.675,0.638,���쐼,2.6,��
2020/12/27,00:30,0.679,0.971,0.616,1.226,0.859,0.380,0.675,0.637,��,2.9,��
2020/12/27,00:40,0.678,0.969,0.615,1.228,0.860,0.381,0.675,0.637,���k��,3.2,��
2020/12/27,00:50,0.679,0.971,0.616,1.226,0.858,0.382,0.676,0.638,���k��,2.6,��
2020/12/27,01:00,0.678,0.970,0.617,1.225,0.859,0.382,0.676,0.637,���k��,2.0,��
2020/12/27,01:10,0.679,0.973,0.615,1.226,0.858,0.381,0.677,0.638,�k��,2.0,��
2020/12/27,01:20,0.678,0.970,0.618,1.227,0.858,0.381,0.677,0.638,���k��,2.3,��
2020/12/27,01:30,0.679,0.970,0.615,1.226,0.859,0.381,0.678,0.637,���k��,3.1,��
2020/12/27,01:40,0.677,0.970,0.615,1.224,0.859,0.382,0.677,0.637,���k��,3.3,��
2020/12/27,01:50,0.678,0.971,0.614,1.226,0.858,0.381,0.676,0.637,���k��,3.6,��
2020/12/27,02:00,0.680,0.970,0.614,1.227,0.858,0.382,0.676,0.638,���k��,3.4,��
2020/12/27,02:10,0.679,0.969,0.616,1.228,0.858,0.382,0.676,0.637,���k��,3.1,��
2020/12/27,02:20,0.677,0.969,0.615,1.225,0.859,0.381,0.676,0.637,���k��,4.0,��
2020/12/27,02:30,0.679,0.970,0.615,1.227,0.858,0.382,0.677,0.638,���k��,4.8,��
2020/12/27,02:40,0.679,0.971,0.615,1.227,0.859,0.381,0.677,0.637,���k��,4.8,��
2020/12/27,02:50,0.682,0.970,0.616,1.229,0.861,0.381,0.676,0.637,���k��,5.0,��
2020/12/27,03:00,0.679,0.972,0.615,1.227,0.859,0.381,0.675,0.636,��,5.3,��
2020/12/27,03:10,0.679,0.971,0.615,1.228,0.858,0.381,0.677,0.637,��,5.6,��
2020/12/27,03:20,0.679,0.970,0.615,1.227,0.859,0.381,0.677,0.636,���k��,5.7,��
2020/12/27,03:30,0.680,0.968,0.615,1.227,0.860,0.381,0.678,0.635,���k��,5.4,��
2020/12/27,03:40,0.678,0.970,0.614,1.225,0.856,0.382,0.676,0.636,���k��,6.2,��
2020/12/27,03:50,0.678,0.969,0.616,1.227,0.858,0.382,0.677,0.638,�k��,6.6,��
2020/12/27,04:00,0.679,0.969,0.615,1.226,0.858,0.383,0.676,0.637,�k��,6.9,��
2020/12/27,04:10,0.678,0.970,0.614,1.225,0.857,0.383,0.678,0.636,�k��,7.0,��
2020/12/27,04:20,0.680,0.970,0.615,1.228,0.858,0.383,0.675,0.637,�k��,6.9,��
2020/12/27,04:30,0.679,0.970,0.618,1.228,0.858,0.381,0.677,0.638,�k��,8.0,��
2020/12/27,04:40,0.678,0.972,0.616,1.226,0.860,0.382,0.677,0.637,�k��,8.5,��
2020/12/27,04:50,0.680,0.972,0.615,1.224,0.860,0.382,0.679,0.637,�k��,8.9,��
2020/12/27,05:00,0.679,0.969,0.615,1.228,0.860,0.382,0.678,0.638,�k��,9.3,��
2020/12/27,05:10,0.680,0.971,0.615,1.228,0.860,0.382,0.678,0.637,�k��,9.8,��
2020/12/27,05:20,0.679,0.972,0.616,1.227,0.860,0.380,0.678,0.638,�k��,9.1,��
2020/12/27,05:30,0.680,0.971,0.616,1.227,0.860,0.381,0.678,0.638,�k��,10.3,��
2020/12/27,05:40,0.679,0.972,0.615,1.228,0.859,0.382,0.678,0.637,�k��,10.3,��
2020/12/27,05:50,0.681,0.971,0.616,1.227,0.858,0.382,0.680,0.639,�k��,10.6,��
2020/12/27,06:00,0.677,0.971,0.615,1.229,0.860,0.382,0.678,0.637,�k��,9.7,��
2020/12/27,06:10,0.680,0.969,0.615,1.229,0.861,0.382,0.678,0.638,�k��,10.6,��
2020/12/27,06:20,0.679,0.971,0.615,1.227,0.858,0.382,0.677,0.639,���k��,10.7,��
2020/12/27,06:30,0.680,0.971,0.614,1.226,0.860,0.381,0.677,0.637,���k��,10.7,��
2020/12/27,06:40,0.679,0.972,0.614,1.227,0.858,0.381,0.678,0.636,���k��,10.8,��
2020/12/27,06:50,0.679,0.970,0.614,1.227,0.859,0.382,0.678,0.638,���k��,10.2,��
2020/12/27,07:00,0.680,0.972,0.615,1.228,0.858,0.381,0.678,0.636,�k��,10.0,��
2020/12/27,07:10,0.679,0.971,0.615,1.230,0.860,0.382,0.679,0.638,�k��,9.8,��
2020/12/27,07:20,0.679,0.971,0.616,1.229,0.859,0.381,0.678,0.638,�k��,9.9,��
2020/12/27,07:30,0.679,0.970,0.615,1.227,0.859,0.382,0.678,0.637,���k��,10.6,��
2020/12/27,07:40,0.679,0.972,0.616,1.227,0.860,0.382,0.678,0.638,���k��,10.2,��
2020/12/27,07:50,0.679,0.970,0.617,1.226,0.860,0.384,0.678,0.639,���k��,11.4,��
2020/12/27,08:00,0.680,0.970,0.614,1.230,0.859,0.382,0.677,0.636,���k��,10.6,��
2020/12/27,08:10,0.679,0.971,0.614,1.229,0.859,0.383,0.678,0.638,���k��,10.5,��
2020/12/27,08:20,0.677,0.972,0.615,1.225,0.860,0.382,0.678,0.638,���k��,5.1,��
2020/12/27,08:30,0.679,0.971,0.615,1.228,0.860,0.381,0.677,0.638,���k��,2.3,��
2020/12/27,08:40,0.679,0.970,0.614,1.228,0.861,0.381,0.677,0.638,�k��,1.4,��
2020/12/27,08:50,0.680,0.972,0.617,1.226,0.859,0.381,0.677,0.638,�k�k��,0.9,��
2020/12/27,09:00,0.679,0.971,0.616,1.226,0.859,0.382,0.677,0.639,�k��,1.4,��
2020/12/27,09:10,0.681,0.974,0.616,1.229,0.861,0.383,0.677,0.638,�k��,1.9,��
2020/12/27,09:20,0.680,0.972,0.617,1.227,0.863,0.383,0.679,0.638,�k��,2.6,��
2020/12/27,09:30,0.682,0.973,0.616,1.230,0.861,0.382,0.678,0.638,�k��,3.1,��
2020/12/27,09:40,0.680,0.972,0.616,1.228,0.860,0.381,0.677,0.639,�k��,4.1,��
2020/12/27,09:50,0.680,0.972,0.617,1.228,0.861,0.382,0.676,0.638,�k��,3.7,��
2020/12/27,10:00,0.680,0.971,0.616,1.226,0.860,0.383,0.676,0.638,�k��,3.1,��
2020/12/27,10:10,0.682,0.973,0.617,1.228,0.862,0.383,0.678,0.638,�k��,2.9,��
2020/12/27,10:20,0.681,0.972,0.618,1.228,0.862,0.383,0.677,0.637,�k��,2.8,��
2020/12/27,10:30,0.680,0.974,0.616,1.230,0.862,0.383,0.674,0.638,�k�k��,3.6,��
2020/12/27,10:40,0.682,0.973,0.616,1.226,0.861,0.383,0.676,0.637,�k�k��,3.3,��
2020/12/27,10:50,0.680,0.973,0.617,1.227,0.861,0.383,0.676,0.638,�k�k��,3.7,��
2020/12/27,11:00,0.681,0.972,0.618,1.226,0.862,0.382,0.675,0.637,�k��,3.7,��
2020/12/27,11:10,0.681,0.973,0.617,1.230,0.860,0.382,0.678,0.638,�k�k��,3.7,��
2020/12/27,11:20,0.681,0.973,0.617,1.227,0.862,0.382,0.677,0.638,�k�k��,3.5,��
2020/12/27,11:30,0.680,0.974,0.615,1.227,0.863,0.383,0.677,0.639,�k��,4.2,��
2020/12/27,11:40,0.681,0.973,0.617,1.229,0.862,0.383,0.677,0.639,�k�k��,4.7,��
2020/12/27,11:50,0.681,0.974,0.618,1.230,0.864,0.382,0.677,0.637,�k��,4.5,��
2020/12/27,12:00,0.680,0.971,0.617,1.227,0.862,0.382,0.676,0.639,�k�k��,4.3,��
2020/12/27,12:10,0.681,0.972,0.616,1.230,0.863,0.383,0.677,0.638,�k��,4.7,��
2020/12/27,12:20,0.681,0.970,0.616,1.229,0.863,0.383,0.678,0.638,�k�k��,4.8,��
2020/12/27,12:30,0.681,0.972,0.617,1.229,0.864,0.384,0.677,0.638,�k�k��,4.8,��
2020/12/27,12:40,0.681,0.974,0.617,1.229,0.863,0.382,0.677,0.637,�k�k��,4.8,��
2020/12/27,12:50,0.682,0.974,0.617,1.229,0.863,0.383,0.677,0.637,�k��,4.8,��
2020/12/27,13:00,0.680,0.971,0.619,1.229,0.863,0.383,0.678,0.640,�k��,4.3,��
2020/12/27,13:10,0.679,0.973,0.615,1.227,0.864,0.384,0.677,0.639,�k��,3.5,��
2020/12/27,13:20,0.680,0.970,0.618,1.228,0.863,0.383,0.677,0.639,���k��,4.5,��
2020/12/27,13:30,0.680,0.972,0.616,1.228,0.865,0.382,0.677,0.639,�k��,3.0,��
2020/12/27,13:40,0.681,0.972,0.615,1.226,0.862,0.382,0.678,0.638,�k��,3.4,��
2020/12/27,13:50,0.681,0.970,0.617,1.228,0.863,0.384,0.678,0.638,���k��,3.3,��
2020/12/27,14:00,0.680,0.973,0.615,1.230,0.862,0.382,0.678,0.639,�k��,2.6,��
2020/12/27,14:10,0.679,0.975,0.619,1.229,0.861,0.382,0.677,0.638,�k��,3.0,��
2020/12/27,14:20,0.681,0.976,0.617,1.229,0.861,0.383,0.678,0.637,���k��,2.5,��
2020/12/27,14:30,0.683,0.973,0.615,1.228,0.861,0.381,0.677,0.638,�k��,2.0,�L
2020/12/27,14:40,0.681,0.974,0.617,1.230,0.861,0.381,0.678,0.639,���k��,2.2,��
2020/12/27,14:50,0.679,0.973,0.618,1.228,0.864,0.382,0.678,0.639,��,2.2,��
2020/12/27,15:00,0.682,0.976,0.617,1.228,0.862,0.381,0.679,0.638,���쓌,1.2,��
2020/12/27,15:10,0.679,0.975,0.616,1.229,0.863,0.384,0.677,0.637,��,1.5,��
2020/12/27,15:20,0.681,0.974,0.616,1.227,0.860,0.383,0.677,0.639,�쓌,1.2,�L
2020/12/27,15:30,0.680,0.975,0.617,1.230,0.862,0.382,0.677,0.639,���쓌,1.2,�L
2020/12/27,15:40,0.681,0.973,0.617,1.227,0.863,0.382,0.678,0.637,��쐼,1.4,�L
2020/12/27,15:50,0.681,0.974,0.616,1.227,0.864,0.383,0.677,0.639,-,CALM,�L
2020/12/27,16:00,0.679,0.973,0.616,1.229,0.861,0.383,0.678,0.639,���k��,1.4,�L
2020/12/27,16:10,0.681,0.975,0.615,1.226,0.860,0.382,0.678,0.638,�k��,0.6,��
2020/12/27,16:20,0.680,0.975,0.617,1.229,0.862,0.382,0.677,0.639,�k�k��,0.6,��
2020/12/27,16:30,0.680,0.974,0.615,1.227,0.864,0.384,0.678,0.639,��,0.8,��
2020/12/27,16:40,0.681,0.974,0.616,1.228,0.862,0.383,0.676,0.638,�쓌,0.9,��
2020/12/27,16:50,0.680,0.974,0.616,1.228,0.863,0.381,0.678,0.637,�쓌,0.6,��
2020/12/27,17:00,0.679,0.974,0.616,1.226,0.861,0.382,0.677,0.637,��쐼,0.9,��
2020/12/27,17:10,0.680,0.973,0.617,1.229,0.862,0.382,0.678,0.635,��쐼,0.6,��
2020/12/27,17:20,0.679,0.974,0.616,1.227,0.862,0.382,0.675,0.637,�쐼,1.4,��
2020/12/27,17:30,0.679,0.973,0.615,1.228,0.862,0.381,0.678,0.638,��쐼,1.4,��
2020/12/27,17:40,0.680,0.974,0.615,1.227,0.859,0.381,0.676,0.638,��쐼,1.5,��
2020/12/27,17:50,0.678,0.972,0.616,1.227,0.862,0.383,0.677,0.637,��쐼,1.9,��
2020/12/27,18:00,0.678,0.973,0.615,1.227,0.862,0.381,0.677,0.637,��쐼,2.3,��
2020/12/27,18:10,0.678,0.974,0.617,1.227,0.863,0.380,0.676,0.637,��쐼,2.9,��
2020/12/27,18:20,0.680,0.972,0.617,1.229,0.861,0.382,0.676,0.638,��쐼,2.5,��
2020/12/27,18:30,0.679,0.975,0.616,1.229,0.862,0.380,0.679,0.637,��쐼,2.2,��
2020/12/27,18:40,0.678,0.972,0.617,1.227,0.862,0.382,0.680,0.638,��쐼,1.9,��
2020/12/27,18:50,0.680,0.975,0.616,1.230,0.861,0.383,0.677,0.637,��,2.0,��
2020/12/27,19:00,0.681,0.976,0.617,1.229,0.862,0.382,0.677,0.638,��쐼,2.3,��
2020/12/27,19:10,0.678,0.975,0.617,1.229,0.862,0.383,0.677,0.638,��,4.5,��
2020/12/27,19:20,0.680,0.973,0.618,1.228,0.864,0.382,0.677,0.637,��쐼,4.2,��
2020/12/27,19:30,0.679,0.972,0.616,1.225,0.863,0.383,0.677,0.637,��쐼,5.3,��
2020/12/27,19:40,0.679,0.974,0.614,1.227,0.861,0.382,0.678,0.638,��,5.8,��
2020/12/27,19:50,0.678,0.974,0.615,1.227,0.861,0.381,0.677,0.639,��,4.5,��
2020/12/27,20:00,0.681,0.973,0.618,1.231,0.861,0.383,0.677,0.638,��,4.4,��
2020/12/27,20:10,0.678,0.974,0.616,1.226,0.862,0.382,0.676,0.638,��,4.6,��
2020/12/27,20:20,0.679,0.973,0.615,1.230,0.863,0.381,0.677,0.639,��쐼,4.1,��
2020/12/27,20:30,0.680,0.974,0.617,1.227,0.862,0.382,0.676,0.638,��쐼,4.6,��
2020/12/27,20:40,0.679,0.972,0.616,1.228,0.863,0.383,0.677,0.638,��쐼,4.2,��
2020/12/27,20:50,0.679,0.973,0.616,1.228,0.862,0.382,0.676,0.637,��쐼,4.4,��
2020/12/27,21:00,0.679,0.971,0.614,1.225,0.861,0.382,0.677,0.638,��쐼,4.3,��
2020/12/27,21:10,0.678,0.972,0.616,1.227,0.861,0.382,0.674,0.637,��쐼,4.4,��
2020/12/27,21:20,0.678,0.973,0.615,1.228,0.863,0.382,0.678,0.636,�쐼,3.9,��
2020/12/27,21:30,0.679,0.972,0.617,1.228,0.862,0.381,0.676,0.636,��쐼,4.2,��
2020/12/27,21:40,0.679,0.974,0.615,1.227,0.862,0.381,0.675,0.638,��쐼,3.8,��
2020/12/27,21:50,0.680,0.974,0.616,1.229,0.861,0.382,0.676,0.638,��쐼,3.4,��
2020/12/27,22:00,0.679,0.971,0.617,1.227,0.861,0.380,0.677,0.637,��쐼,4.5,��
2020/12/27,22:10,0.679,0.973,0.617,1.224,0.863,0.382,0.676,0.637,��쐼,4.7,��
2020/12/27,22:20,0.678,0.973,0.618,1.228,0.860,0.381,0.677,0.638,��쐼,4.7,��
2020/12/27,22:30,0.679,0.973,0.616,1.227,0.860,0.381,0.677,0.636,��쐼,4.9,��
2020/12/27,22:40,0.679,0.972,0.616,1.226,0.862,0.382,0.677,0.637,��쐼,5.0,��
2020/12/27,22:50,0.680,0.975,0.616,1.226,0.859,0.381,0.676,0.637,��쐼,5.2,��
2020/12/27,23:00,0.679,0.973,0.618,1.227,0.863,0.380,0.678,0.640,��,5.3,��
2020/12/27,23:10,0.679,0.974,0.616,1.227,0.861,0.382,0.676,0.638,��쐼,5.1,��
2020/12/27,23:20,0.680,0.972,0.616,1.225,0.863,0.382,0.677,0.637,��쐼,5.6,��
2020/12/27,23:30,0.679,0.973,0.616,1.227,0.860,0.382,0.678,0.636,��쐼,5.4,��
2020/12/27,23:40,0.680,0.972,0.617,1.225,0.861,0.383,0.675,0.638,��쐼,4.8,��
2020/12/27,23:50,0.680,0.973,0.615,1.227,0.862,0.382,0.676,0.638,��,5.2,��
